Dubuque, IA

12:31 PM CDT on July 27, 2017 (GMT -0500)
Dubuque Regional

Weather History for KDBQ - February, 2014

Change the Weather History Date:

Thursday, February 20, 2014

  Actual Average Record
Temperature  
Mean Temperature 33 °F 25 °F  
Max Temperature 37 °F 33 °F 61 °F (1981)
Min Temperature 29 °F 17 °F -24 °F (1929)
Degree Days  
Heating Degree Days 32 40  
Month to date heating degree days 1096 852  
Since 1 July heating degree days 5938 5089  
Cooling Degree Days 0 0  
Month to date cooling degree days 0 0  
Year to date cooling degree days 0 0  
Moisture  
Dew Point 34 °F    
Average Humidity 91    
Maximum Humidity 100    
Minimum Humidity 82    
Precipitation  
Precipitation 0.49 in 0.05 in 1.13 in (2011)
Month to date precipitation 1.37 0.96  
Year to date precipitation 2.32 2.13  
Snow  
Snow T in 0.30 in - ()
Month to date snowfall 13.3 6.8  
Since 1 July snowfall 49.7 31.4  
Snow Depth 6.00 in    
Sea Level Pressure  
Sea Level Pressure 29.32 in    
Wind  
Wind Speed 20 mph (SE)    
Max Wind Speed 39 mph    
Max Gust Speed 49 mph    
Visibility 5 miles    
Events Fog , Rain , Snow , Thunderstorm    
T = Trace of Precipitation, MM = Missing Value Source: NWS Daily Summary

Daily Weather History Graph

Daily Weather History Graph

Search for Another Location

Airport or City:

Trip Planner

Search our weather history database for the weather conditions in past years. The results will help you decide how hot, cold, wet, or windy it might be!

Date:

Astronomy

Feb. 20, 2014 Rise Set
Actual Time 6:52 AM CST 5:41 PM CST
Civil Twilight 6:23 AM CST 6:10 PM CST
Nautical Twilight 5:50 AM CST 6:42 PM CST
Astronomical Twilight 5:18 AM CST 7:15 PM CST
Moon 11:44 PM CST (2/20) 9:27 AM CST (2/20)
Length of Visible Light 11h 46m
Length of Day
10h 49m
Waning Gibbous, 70% of the Moon is Illuminated
Feb 20
Waning Gibbous
Feb 22
Last Quarter
Mar 1
New
Mar 8
First Quarter
Mar 16
Full

Hourly Weather History & Observations

Time (CST) Temp. Windchill Dew Point Humidity Pressure Visibility Wind Dir Wind Speed Gust Speed Precip Events Conditions
12:53 AM 34.0 °F 23.8 °F 28.0 °F 79% 29.80 in 10.0 mi SSE 16.1 mph - N/A   Overcast
1:53 AM 35.1 °F 25.9 °F 30.0 °F 82% 29.76 in 9.0 mi SSE 13.8 mph - N/A   Overcast
2:53 AM 34.0 °F 23.4 °F 32.0 °F 92% 29.75 in 5.0 mi SSE 17.3 mph - 0.01 in   Overcast
3:53 AM 34.0 °F 25.0 °F 33.1 °F 96% 29.71 in 4.0 mi SE 12.7 mph - 0.04 in   Overcast
4:51 AM 33.8 °F 23.9 °F 33.8 °F 100% 29.65 in 4.0 mi ESE 15.0 mph - 0.04 in   Overcast
4:53 AM 34.0 °F 24.6 °F 34.0 °F 100% 29.68 in 4.0 mi ESE 13.8 mph - 0.04 in   Overcast
5:04 AM 34.0 °F 24.6 °F 34.0 °F 100% 29.65 in 4.0 mi ESE 13.8 mph - 0.01 in   Overcast
5:53 AM 34.0 °F 28.0 °F 34.0 °F 100% 29.68 in 5.0 mi East 6.9 mph - 0.02 in   Overcast
6:53 AM 34.0 °F 23.4 °F 34.0 °F 100% 29.61 in 5.0 mi East 17.3 mph - 0.06 in   Overcast
7:53 AM 34.0 °F 22.7 °F 34.0 °F 100% 29.59 in 6.0 mi East 19.6 mph - 0.00 in   Overcast
8:20 AM 34.0 °F 24.6 °F 34.0 °F 100% 29.56 in 5.0 mi East 13.8 mph - N/A   Overcast
8:53 AM 34.0 °F 26.0 °F 34.0 °F 100% 29.60 in 5.0 mi East 10.4 mph - N/A   Overcast
9:43 AM 34.0 °F 24.6 °F 34.0 °F 100% 29.52 in 2.5 mi ENE 13.8 mph - N/A   Overcast
9:53 AM 34.0 °F 25.0 °F 34.0 °F 100% 29.55 in 1.8 mi East 12.7 mph - N/A   Overcast
10:18 AM 34.0 °F 23.8 °F 34.0 °F 100% 29.49 in 0.8 mi East 16.1 mph - N/A   Overcast
10:53 AM 34.0 °F 24.6 °F 34.0 °F 100% 29.51 in 0.5 mi East 13.8 mph - N/A Fog Fog
11:22 AM 34.0 °F 22.7 °F 34.0 °F 100% 29.43 in 1.2 mi East 19.6 mph 25.3 mph 0.02 in   Overcast
11:53 AM 34.0 °F 24.2 °F 34.0 °F 100% 29.40 in 1.5 mi East 15.0 mph 27.6 mph 0.03 in   Mist
12:08 PM 34.0 °F 22.7 °F 34.0 °F 100% 29.35 in 2.0 mi East 19.6 mph 29.9 mph N/A   Overcast
12:22 PM 35.1 °F 24.8 °F 35.1 °F 100% 29.34 in 3.0 mi East 17.3 mph 27.6 mph N/A   Overcast
12:53 PM 35.1 °F 25.9 °F 35.1 °F 100% 29.34 in 2.5 mi East 13.8 mph - N/A   Overcast
1:04 PM 35.1 °F 25.5 °F 35.1 °F 100% 29.31 in 3.0 mi ESE 15.0 mph - N/A   Overcast
1:27 PM 34.0 °F 21.8 °F 34.0 °F 100% 29.26 in 2.5 mi East 23.0 mph - N/A   Overcast
1:41 PM 34.0 °F 21.8 °F 34.0 °F 100% 29.23 in 1.8 mi East 23.0 mph - N/A   Overcast
1:53 PM 34.0 °F 21.5 °F 34.0 °F 100% 29.24 in 1.0 mi East 24.2 mph 29.9 mph 0.01 in Rain Light Rain
2:48 PM 35.6 °F 24.0 °F 35.6 °F 100% 29.14 in 2.0 mi East 23.0 mph 32.2 mph 0.04 in   Overcast
2:53 PM 35.1 °F 23.0 °F 35.1 °F 100% 29.16 in 2.0 mi East 24.2 mph 32.2 mph 0.04 in   Overcast
3:14 PM 35.1 °F 23.5 °F 35.1 °F 100% 29.13 in 1.8 mi East 21.9 mph 31.1 mph 0.01 in   Overcast
3:19 PM 35.1 °F 24.5 °F 35.1 °F 100% 29.14 in 2.0 mi ESE 18.4 mph 29.9 mph 0.01 in   Overcast
3:30 PM 35.1 °F 25.5 °F 35.1 °F 100% 29.23 in 1.0 mi SSW 15.0 mph 36.8 mph 0.12 in Rain , Thunderstorm Heavy Thunderstorms and Rain
3:42 PM 35.1 °F 25.5 °F 35.1 °F 100% 29.14 in 2.0 mi ESE 15.0 mph - 0.22 in Rain , Thunderstorm Thunderstorms and Rain
3:45 PM 36.0 °F 25.6 °F 36.0 °F 100% 29.14 in 3.0 mi ESE 18.4 mph - 0.23 in Rain , Thunderstorm Light Thunderstorms and Rain
3:51 PM 35.6 °F 25.5 °F 35.6 °F 100% 29.13 in 6.0 mi ESE 17.3 mph - 0.23 in Rain , Thunderstorm Light Rain
3:53 PM 36.0 °F 26.0 °F 35.1 °F 97% 29.16 in 8.0 mi ESE 17.3 mph - 0.23 in Rain Light Rain
4:00 PM 36.0 °F 26.0 °F 35.1 °F 97% 29.13 in 10.0 mi East 17.3 mph - 0.00 in   Mostly Cloudy
4:30 PM 36.0 °F 26.7 °F 35.1 °F 97% 29.09 in 10.0 mi East 15.0 mph - 0.00 in   Overcast
4:38 PM 36.0 °F 27.1 °F 36.0 °F 100% 29.08 in 10.0 mi East 13.8 mph - 0.00 in   Overcast
4:53 PM 36.0 °F 27.5 °F 36.0 °F 100% 29.09 in 10.0 mi ESE 12.7 mph - 0.00 in   Overcast
5:16 PM 36.0 °F 27.5 °F 36.0 °F 100% 29.05 in 4.0 mi SE 12.7 mph - N/A   Overcast
5:23 PM 37.0 °F 27.7 °F 37.0 °F 100% 29.05 in 1.5 mi SE 16.1 mph - N/A   Overcast
5:34 PM 37.0 °F 27.0 °F 37.0 °F 100% 29.05 in 0.8 mi South 18.4 mph 25.3 mph 0.01 in   Overcast
5:53 PM 37.0 °F 25.9 °F 37.0 °F 100% 29.07 in 1.5 mi South 23.0 mph - 0.01 in   Overcast
6:12 PM 37.0 °F 24.5 °F 37.0 °F 100% 29.04 in 3.0 mi SW 29.9 mph 36.8 mph N/A   Overcast
6:34 PM 34.0 °F 19.7 °F 34.0 °F 100% 29.05 in 9.0 mi SW 33.4 mph 43.7 mph N/A   Overcast
6:53 PM 33.1 °F 19.1 °F 33.1 °F 100% 29.11 in 7.0 mi WSW 29.9 mph 40.3 mph N/A   Overcast
7:19 PM 33.1 °F 18.9 °F 33.1 °F 100% 29.12 in 9.0 mi WSW 31.1 mph 39.1 mph N/A   Overcast
7:31 PM 33.1 °F 19.1 °F 32.0 °F 96% 29.13 in 10.0 mi West 29.9 mph - N/A   Overcast
7:53 PM 33.1 °F 18.4 °F 32.0 °F 96% 29.18 in 3.0 mi WSW 33.4 mph 43.7 mph 0.00 in Snow Light Snow
7:57 PM 33.1 °F 19.3 °F 32.0 °F 96% 29.16 in 1.8 mi WSW 28.8 mph 43.7 mph 0.00 in Snow Light Snow
8:13 PM 33.1 °F 19.1 °F 32.0 °F 96% 29.17 in 3.0 mi WSW 29.9 mph 39.1 mph 0.00 in Snow Light Snow
8:53 PM 33.1 °F 18.2 °F 30.9 °F 92% 29.24 in 10.0 mi West 34.5 mph 46.0 mph 0.00 in   Overcast
9:09 PM 33.1 °F 19.1 °F 30.9 °F 92% 29.22 in 10.0 mi West 29.9 mph 40.3 mph N/A   Overcast
9:53 PM 34.0 °F 20.3 °F 30.9 °F 89% 29.26 in 10.0 mi West 29.9 mph 41.4 mph N/A   Overcast
10:21 PM 33.1 °F 18.2 °F 30.0 °F 89% 29.25 in 10.0 mi West 34.5 mph 43.7 mph N/A   Overcast
10:53 PM 32.0 °F 16.3 °F 28.9 °F 88% 29.30 in 7.0 mi West 36.8 mph 44.9 mph N/A   Overcast
11:53 PM 28.9 °F 12.8 °F 25.0 °F 85% 29.34 in 10.0 mi West 33.4 mph 47.2 mph N/A   Overcast